Time,TemperatureF,DewpointF,PressureIn,WindDirection,WindDirectionDegrees,WindSpeedMPH,WindSpeedGustMPH,Humidity,HourlyPrecipIn,Conditions,Clouds,dailyrainin,SoftwareType,DateUTC
2013-03-05 00:04:00,31.7,27.1,29.96,ESE,105,10.0,10.0,83,0.00,,,0.00,Wunderground v.1.15,2013-03-05 06:04:00,
2013-03-05 00:10:00,31.7,27.4,29.95,East,94,10.0,10.0,84,0.00,,,0.00,Wunderground v.1.15,2013-03-05 06:10:00,
2013-03-05 00:16:00,31.7,27.4,29.95,East,83,10.0,10.0,84,0.00,,,0.00,Wunderground v.1.15,2013-03-05 06:16:00,
2013-03-05 00:22:00,31.7,27.4,29.95,East,101,9.0,9.0,84,0.00,,,0.00,Wunderground v.1.15,2013-03-05 06:22:00,
2013-03-05 00:28:00,31.7,27.4,29.95,East,87,9.0,9.0,84,0.00,,,0.00,Wunderground v.1.15,2013-03-05 06:28:00,
2013-03-05 00:34:00,31.7,27.4,29.95,East,90,9.0,13.0,84,0.00,,,0.00,Wunderground v.1.15,2013-03-05 06:34:00,
2013-03-05 00:40:00,31.7,27.4,29.95,East,83,11.0,11.0,84,0.00,,,0.00,Wunderground v.1.15,2013-03-05 06:40:00,
2013-03-05 00:46:00,31.7,27.4,29.95,East,101,12.0,12.0,84,0.00,,,0.00,Wunderground v.1.15,2013-03-05 06:46:00,
2013-03-05 00:52:00,31.7,27.7,29.94,East,84,11.0,13.0,85,0.00,,,0.00,Wunderground v.1.15,2013-03-05 06:52:00,
2013-03-05 00:58:00,31.7,27.7,29.94,East,94,11.0,13.0,85,0.00,,,0.00,Wunderground v.1.15,2013-03-05 06:58:00,
2013-03-05 01:04:00,31.7,27.7,29.94,East,92,12.0,14.0,85,0.00,,,0.00,Wunderground v.1.15,2013-03-05 07:04:00,
2013-03-05 01:10:00,31.8,27.8,29.94,East,92,12.0,12.0,85,0.00,,,0.00,Wunderground v.1.15,2013-03-05 07:10:00,
2013-03-05 01:16:00,31.8,27.8,29.94,East,82,11.0,12.0,85,0.00,,,0.00,Wunderground v.1.15,2013-03-05 07:16:00,
2013-03-05 01:22:00,31.8,27.8,29.94,East,94,11.0,11.0,85,0.00,,,0.00,Wunderground v.1.15,2013-03-05 07:22:00,
2013-03-05 01:28:00,31.8,27.8,29.93,East,79,10.0,13.0,85,0.00,,,0.00,Wunderground v.1.15,2013-03-05 07:28:00,
2013-03-05 01:34:00,31.9,27.9,29.93,East,83,10.0,11.0,85,0.00,,,0.00,Wunderground v.1.15,2013-03-05 07:34:00,
2013-03-05 01:40:00,31.9,27.9,29.93,East,101,11.0,11.0,85,0.00,,,0.00,Wunderground v.1.15,2013-03-05 07:40:00,
2013-03-05 01:46:00,31.9,27.9,29.93,ENE,75,10.0,13.0,85,0.00,,,0.00,Wunderground v.1.15,2013-03-05 07:46:00,
2013-03-05 01:52:00,31.9,27.9,29.93,ENE,71,10.0,10.0,85,0.00,,,0.00,Wunderground v.1.15,2013-03-05 07:52:00,
2013-03-05 01:58:00,31.9,27.9,29.92,East,86,11.0,12.0,85,0.00,,,0.00,Wunderground v.1.15,2013-03-05 07:58:00,
2013-03-05 02:04:00,31.9,27.9,29.92,East,80,11.0,11.0,85,0.00,,,0.00,Wunderground v.1.15,2013-03-05 08:04:00,
2013-03-05 02:10:00,31.9,27.9,29.92,East,91,11.0,13.0,85,0.00,,,0.00,Wunderground v.1.15,2013-03-05 08:10:00,
2013-03-05 02:16:00,31.9,27.9,29.91,East,90,11.0,16.0,85,0.00,,,0.00,Wunderground v.1.15,2013-03-05 08:16:00,
2013-03-05 02:22:00,31.9,27.9,29.91,East,93,12.0,12.0,85,0.00,,,0.00,Wunderground v.1.15,2013-03-05 08:22:00,
2013-03-05 02:28:00,31.9,27.9,29.91,East,83,11.0,14.0,85,0.00,,,0.00,Wunderground v.1.15,2013-03-05 08:28:00,
2013-03-05 02:34:00,31.9,28.2,29.91,East,95,9.0,10.0,86,0.00,,,0.00,Wunderground v.1.15,2013-03-05 08:34:00,
2013-03-05 02:40:00,31.9,27.9,29.90,East,83,10.0,14.0,85,0.00,,,0.00,Wunderground v.1.15,2013-03-05 08:40:00,
2013-03-05 02:46:00,32.0,28.0,29.90,East,88,12.0,12.0,85,0.00,,,0.00,Wunderground v.1.15,2013-03-05 08:46:00,
2013-03-05 02:52:00,31.9,28.2,29.90,East,81,11.0,11.0,86,0.00,,,0.00,Wunderground v.1.15,2013-03-05 08:52:00,
2013-03-05 02:58:00,31.9,28.2,29.90,East,90,11.0,16.0,86,0.00,,,0.00,Wunderground v.1.15,2013-03-05 08:58:00,
2013-03-05 03:04:00,31.9,28.2,29.90,East,86,11.0,13.0,86,0.00,,,0.00,Wunderground v.1.15,2013-03-05 09:04:00,
2013-03-05 03:10:00,31.8,28.1,29.89,East,90,10.0,10.0,86,0.00,,,0.00,Wunderground v.1.15,2013-03-05 09:10:00,
2013-03-05 03:16:00,31.8,28.1,29.89,East,84,10.0,11.0,86,0.00,,,0.00,Wunderground v.1.15,2013-03-05 09:16:00,
2013-03-05 03:22:00,31.7,28.3,29.89,East,86,10.0,14.0,87,0.00,,,0.00,Wunderground v.1.15,2013-03-05 09:22:00,
2013-03-05 03:28:00,31.6,28.2,29.89,East,84,11.0,14.0,87,0.00,,,0.00,Wunderground v.1.15,2013-03-05 09:28:00,
2013-03-05 03:34:00,31.4,28.3,29.88,ENE,65,11.0,11.0,88,0.00,,,0.00,Wunderground v.1.15,2013-03-05 09:34:00,
2013-03-05 03:40:00,31.3,28.4,29.89,East,84,10.0,10.0,89,0.00,,,0.00,Wunderground v.1.15,2013-03-05 09:40:00,
2013-03-05 03:46:00,31.3,28.4,29.89,ENE,76,10.0,10.0,89,0.00,,,0.00,Wunderground v.1.15,2013-03-05 09:46:00,
2013-03-05 03:52:00,31.3,28.4,29.89,East,83,10.0,10.0,89,0.00,,,0.00,Wunderground v.1.15,2013-03-05 09:52:00,
2013-03-05 03:58:00,31.2,28.3,29.89,East,80,10.0,10.0,89,0.00,,,0.00,Wunderground v.1.15,2013-03-05 09:58:00,
2013-03-05 04:04:00,31.2,28.6,29.88,East,83,9.0,9.0,90,0.00,,,0.00,Wunderground v.1.15,2013-03-05 10:04:00,
2013-03-05 04:10:00,31.2,28.6,29.88,ENE,71,10.0,13.0,90,0.00,,,0.00,Wunderground v.1.15,2013-03-05 10:10:00,
2013-03-05 04:16:00,31.2,28.6,29.88,East,85,10.0,11.0,90,0.00,,,0.00,Wunderground v.1.15,2013-03-05 10:16:00,
2013-03-05 04:22:00,31.1,28.5,29.88,East,82,10.0,10.0,90,0.00,,,0.00,Wunderground v.1.15,2013-03-05 10:22:00,
2013-03-05 04:28:00,31.1,28.8,29.89,East,82,9.0,10.0,91,0.00,,,0.00,Wunderground v.1.15,2013-03-05 10:28:00,
2013-03-05 04:34:00,31.1,28.8,29.89,East,88,7.0,7.0,91,0.00,,,0.00,Wunderground v.1.15,2013-03-05 10:34:00,
2013-03-05 04:40:00,31.2,28.9,29.89,East,98,6.0,8.0,91,0.00,,,0.00,Wunderground v.1.15,2013-03-05 10:40:00,
2013-03-05 04:46:00,31.2,28.9,29.89,East,83,6.0,9.0,91,0.00,,,0.00,Wunderground v.1.15,2013-03-05 10:46:00,
2013-03-05 04:52:00,31.2,28.9,29.88,East,90,7.0,9.0,91,0.00,,,0.00,Wunderground v.1.15,2013-03-05 10:52:00,
2013-03-05 04:58:00,31.2,28.9,29.88,East,82,8.0,9.0,91,0.00,,,0.00,Wunderground v.1.15,2013-03-05 10:58:00,
2013-03-05 05:04:00,31.2,28.9,29.88,ENE,74,8.0,9.0,91,0.00,,,0.00,Wunderground v.1.15,2013-03-05 11:04:00,
2013-03-05 05:10:00,31.2,28.9,29.88,East,80,8.0,9.0,91,0.00,,,0.00,Wunderground v.1.15,2013-03-05 11:10:00,
2013-03-05 05:16:00,31.1,28.8,29.88,ENE,78,8.0,11.0,91,0.00,,,0.00,Wunderground v.1.15,2013-03-05 11:16:00,
2013-03-05 05:22:00,31.1,29.0,29.87,East,90,9.0,9.0,92,0.00,,,0.00,Wunderground v.1.15,2013-03-05 11:22:00,
2013-03-05 05:28:00,31.0,28.9,29.87,ENE,78,9.0,10.0,92,0.00,,,0.00,Wunderground v.1.15,2013-03-05 11:28:00,
2013-03-05 05:34:00,31.0,28.9,29.87,East,80,9.0,10.0,92,0.00,,,0.00,Wunderground v.1.15,2013-03-05 11:34:00,
2013-03-05 05:40:00,31.0,28.9,29.86,ENE,72,10.0,11.0,92,0.00,,,0.00,Wunderground v.1.15,2013-03-05 11:40:00,
2013-03-05 05:46:00,31.0,28.9,29.86,ENE,71,10.0,10.0,92,0.00,,,0.00,Wunderground v.1.15,2013-03-05 11:46:00,
2013-03-05 05:52:00,31.0,28.9,29.86,East,80,9.0,9.0,92,0.00,,,0.00,Wunderground v.1.15,2013-03-05 11:52:00,
2013-03-05 05:58:00,31.0,28.9,29.87,East,86,9.0,9.0,92,0.00,,,0.00,Wunderground v.1.15,2013-03-05 11:58:00,
2013-03-05 06:04:00,31.1,29.0,29.87,East,94,8.0,8.0,92,0.00,,,0.00,Wunderground v.1.15,2013-03-05 12:04:00,
2013-03-05 06:10:00,31.1,29.0,29.87,East,86,8.0,9.0,92,0.00,,,0.00,Wunderground v.1.15,2013-03-05 12:10:00,
2013-03-05 06:16:00,31.1,29.0,29.87,East,92,7.0,8.0,92,0.00,,,0.00,Wunderground v.1.15,2013-03-05 12:16:00,
2013-03-05 06:22:00,31.1,29.0,29.87,ESE,108,7.0,7.0,92,0.00,,,0.00,Wunderground v.1.15,2013-03-05 12:22:00,
2013-03-05 06:28:00,31.1,29.3,29.87,SE,130,6.0,7.0,93,0.00,,,0.00,Wunderground v.1.15,2013-03-05 12:28:00,
2013-03-05 06:34:00,31.1,29.3,29.87,East,97,5.0,8.0,93,0.00,,,0.00,Wunderground v.1.15,2013-03-05 12:34:00,
2013-03-05 06:40:00,31.0,29.2,29.87,ENE,78,6.0,8.0,93,0.00,,,0.00,Wunderground v.1.15,2013-03-05 12:40:00,
2013-03-05 06:46:00,31.0,29.2,29.87,East,84,5.0,6.0,93,0.00,,,0.00,Wunderground v.1.15,2013-03-05 12:46:00,
2013-03-05 06:52:00,31.0,29.2,29.88,East,84,5.0,6.0,93,0.00,,,0.00,Wunderground v.1.15,2013-03-05 12:52:00,
2013-03-05 06:58:00,31.0,29.2,29.87,ENE,74,5.0,6.0,93,0.00,,,0.00,Wunderground v.1.15,2013-03-05 12:58:00,
2013-03-05 07:04:00,31.0,29.2,29.86,ENE,74,6.0,8.0,93,0.00,,,0.00,Wunderground v.1.15,2013-03-05 13:04:00,
2013-03-05 07:10:00,31.0,29.2,29.86,East,80,7.0,8.0,93,0.00,,,0.00,Wunderground v.1.15,2013-03-05 13:10:00,
2013-03-05 07:16:00,31.0,29.5,29.87,ENE,78,7.0,8.0,94,0.00,,,0.00,Wunderground v.1.15,2013-03-05 13:16:00,
2013-03-05 07:22:00,31.0,29.5,29.87,ENE,72,6.0,7.0,94,0.00,,,0.00,Wunderground v.1.15,2013-03-05 13:22:00,
2013-03-05 07:28:00,31.0,29.5,29.88,ENE,76,6.0,7.0,94,0.00,,,0.00,Wunderground v.1.15,2013-03-05 13:28:00,
2013-03-05 07:34:00,31.0,29.5,29.88,ENE,70,5.0,6.0,94,0.00,,,0.00,Wunderground v.1.15,2013-03-05 13:34:00,
2013-03-05 07:40:00,31.1,29.6,29.87,ENE,70,5.0,7.0,94,0.00,,,0.00,Wunderground v.1.15,2013-03-05 13:40:00,
2013-03-05 07:46:00,31.1,29.6,29.88,ENE,78,6.0,8.0,94,0.00,,,0.00,Wunderground v.1.15,2013-03-05 13:46:00,
2013-03-05 07:52:00,31.2,29.7,29.88,East,80,6.0,7.0,94,0.00,,,0.00,Wunderground v.1.15,2013-03-05 13:52:00,
2013-03-05 07:58:00,31.3,29.8,29.88,East,92,5.0,7.0,94,0.00,,,0.00,Wunderground v.1.15,2013-03-05 13:58:00,
2013-03-05 08:04:00,31.4,29.9,29.87,East,87,5.0,6.0,94,0.00,,,0.00,Wunderground v.1.15,2013-03-05 14:04:00,
2013-03-05 08:10:00,31.5,30.0,29.87,East,86,5.0,6.0,94,0.00,,,0.00,Wunderground v.1.15,2013-03-05 14:10:00,
2013-03-05 08:16:00,31.5,30.0,29.86,ENE,74,6.0,6.0,94,0.00,,,0.00,Wunderground v.1.15,2013-03-05 14:16:00,
2013-03-05 08:22:00,31.5,30.0,29.86,ENE,76,6.0,6.0,94,0.00,,,0.00,Wunderground v.1.15,2013-03-05 14:22:00,
2013-03-05 08:28:00,31.6,30.1,29.86,ENE,67,6.0,6.0,94,0.00,,,0.00,Wunderground v.1.15,2013-03-05 14:28:00,
2013-03-05 08:34:00,31.6,30.1,29.85,ENE,65,6.0,6.0,94,0.00,,,0.00,Wunderground v.1.15,2013-03-05 14:34:00,
2013-03-05 08:40:00,31.6,30.1,29.85,ENE,69,6.0,7.0,94,0.00,,,0.00,Wunderground v.1.15,2013-03-05 14:40:00,
2013-03-05 08:46:00,31.7,30.2,29.85,ENE,74,7.0,8.0,94,0.00,,,0.00,Wunderground v.1.15,2013-03-05 14:46:00,
2013-03-05 08:52:00,31.8,30.3,29.85,ENE,76,7.0,8.0,94,0.00,,,0.00,Wunderground v.1.15,2013-03-05 14:52:00,
2013-03-05 08:58:00,31.8,30.3,29.85,ENE,77,6.0,8.0,94,0.00,,,0.00,Wunderground v.1.15,2013-03-05 14:58:00,
2013-03-05 09:04:00,31.9,30.4,29.85,East,80,6.0,7.0,94,0.00,,,0.00,Wunderground v.1.15,2013-03-05 15:04:00,
2013-03-05 09:10:00,31.9,30.4,29.85,East,80,6.0,7.0,94,0.00,,,0.00,Wunderground v.1.15,2013-03-05 15:10:00,
2013-03-05 09:16:00,32.0,30.5,29.85,ENE,74,5.0,5.0,94,0.00,,,0.00,Wunderground v.1.15,2013-03-05 15:16:00,
2013-03-05 09:22:00,32.2,30.7,29.85,ENE,72,4.0,5.0,94,0.00,,,0.00,Wunderground v.1.15,2013-03-05 15:22:00,
2013-03-05 09:28:00,32.3,30.8,29.85,East,84,5.0,5.0,94,0.00,,,0.00,Wunderground v.1.15,2013-03-05 15:28:00,
2013-03-05 09:34:00,32.4,30.9,29.84,East,80,4.0,5.0,94,0.00,,,0.00,Wunderground v.1.15,2013-03-05 15:34:00,
2013-03-05 09:40:00,32.5,31.0,29.84,ENE,78,3.0,5.0,94,0.00,,,0.00,Wunderground v.1.15,2013-03-05 15:40:00,
2013-03-05 09:46:00,32.7,31.2,29.84,East,79,3.0,5.0,94,0.00,,,0.00,Wunderground v.1.15,2013-03-05 15:46:00,
2013-03-05 09:52:00,32.9,31.4,29.84,ENE,66,3.0,3.0,94,0.00,,,0.00,Wunderground v.1.15,2013-03-05 15:52:00,
2013-03-05 09:58:00,33.0,31.5,29.83,ENE,67,4.0,5.0,94,0.00,,,0.00,Wunderground v.1.15,2013-03-05 15:58:00,
2013-03-05 10:04:00,33.2,31.7,29.83,ENE,67,5.0,7.0,94,0.00,,,0.00,Wunderground v.1.15,2013-03-05 16:04:00,
2013-03-05 10:10:00,33.2,31.7,29.83,ENE,66,5.0,7.0,94,0.00,,,0.01,Wunderground v.1.15,2013-03-05 16:10:00,
2013-03-05 10:16:00,33.3,31.8,29.83,ENE,59,5.0,7.0,94,0.00,,,0.01,Wunderground v.1.15,2013-03-05 16:16:00,
2013-03-05 10:22:00,33.4,31.9,29.83,ENE,74,5.0,5.0,94,0.05,,,0.02,Wunderground v.1.15,2013-03-05 16:22:00,
2013-03-05 10:28:00,33.5,32.0,29.83,ENE,73,4.0,5.0,94,0.08,,,0.03,Wunderground v.1.15,2013-03-05 16:28:00,
2013-03-05 10:34:00,33.6,32.1,29.83,ENE,63,4.0,5.0,94,0.08,,,0.03,Wunderground v.1.15,2013-03-05 16:34:00,
2013-03-05 10:40:00,33.7,32.2,29.83,ENE,69,4.0,5.0,94,0.06,,,0.04,Wunderground v.1.15,2013-03-05 16:40:00,
2013-03-05 10:46:00,33.8,32.3,29.82,ENE,61,4.0,5.0,94,0.06,,,0.04,Wunderground v.1.15,2013-03-05 16:46:00,
2013-03-05 10:52:00,33.8,32.3,29.82,ENE,61,4.0,4.0,94,0.07,,,0.05,Wunderground v.1.15,2013-03-05 16:52:00,
2013-03-05 10:58:00,33.8,32.0,29.82,ENE,57,4.0,5.0,93,0.06,,,0.06,Wunderground v.1.15,2013-03-05 16:58:00,
2013-03-05 11:04:00,33.8,32.0,29.82,ENE,57,4.0,5.0,93,0.06,,,0.06,Wunderground v.1.15,2013-03-05 17:04:00,
2013-03-05 11:10:00,33.9,32.1,29.82,ENE,57,4.0,4.0,93,0.08,,,0.07,Wunderground v.1.15,2013-03-05 17:10:00,
2013-03-05 11:16:00,33.9,32.1,29.82,ENE,57,4.0,4.0,93,0.08,,,0.08,Wunderground v.1.15,2013-03-05 17:16:00,
2013-03-05 11:22:00,33.9,32.1,29.82,ENE,57,4.0,4.0,93,0.08,,,0.09,Wunderground v.1.15,2013-03-05 17:22:00,
2013-03-05 11:28:00,34.1,32.3,29.82,ENE,57,4.0,4.0,93,0.07,,,0.09,Wunderground v.1.15,2013-03-05 17:28:00,
2013-03-05 11:34:00,34.2,32.4,29.82,ENE,59,4.0,4.0,93,0.06,,,0.10,Wunderground v.1.15,2013-03-05 17:34:00,
2013-03-05 11:40:00,34.3,32.8,29.82,ENE,59,3.0,3.0,94,0.08,,,0.11,Wunderground v.1.15,2013-03-05 17:40:00,
2013-03-05 11:46:00,34.3,32.5,29.82,ENE,59,4.0,5.0,93,0.07,,,0.12,Wunderground v.1.15,2013-03-05 17:46:00,
2013-03-05 11:52:00,34.2,32.4,29.82,ENE,59,4.0,4.0,93,0.07,,,0.12,Wunderground v.1.15,2013-03-05 17:52:00,
2013-03-05 11:58:00,34.4,32.6,29.82,ENE,58,3.0,4.0,93,0.07,,,0.13,Wunderground v.1.15,2013-03-05 17:58:00,
2013-03-05 12:04:00,34.6,32.8,29.82,ENE,58,3.0,3.0,93,0.07,,,0.14,Wunderground v.1.15,2013-03-05 18:04:00,
2013-03-05 12:10:00,34.6,32.8,29.81,NE,49,3.0,3.0,93,0.07,,,0.15,Wunderground v.1.15,2013-03-05 18:10:00,
2013-03-05 12:16:00,34.6,32.8,29.81,NE,49,3.0,4.0,93,0.07,,,0.15,Wunderground v.1.15,2013-03-05 18:16:00,
2013-03-05 12:22:00,34.4,32.3,29.81,NE,49,3.0,3.0,92,0.06,,,0.16,Wunderground v.1.15,2013-03-05 18:22:00,
2013-03-05 12:28:00,33.9,31.6,29.81,NE,49,3.0,3.0,91,0.07,,,0.17,Wunderground v.1.15,2013-03-05 18:28:00,
2013-03-05 12:34:00,33.2,31.1,29.81,NE,49,3.0,4.0,92,0.07,,,0.17,Wunderground v.1.15,2013-03-05 18:34:00,
2013-03-05 12:40:00,33.0,31.2,29.81,NE,39,4.0,5.0,93,0.06,,,0.18,Wunderground v.1.15,2013-03-05 18:40:00,
2013-03-05 12:46:00,33.0,31.2,29.80,NE,39,4.0,5.0,93,0.08,,,0.19,Wunderground v.1.15,2013-03-05 18:46:00,
2013-03-05 12:52:00,33.0,31.2,29.80,NE,39,4.0,4.0,93,0.08,,,0.19,Wunderground v.1.15,2013-03-05 18:52:00,
2013-03-05 12:58:00,33.1,31.3,29.80,NE,39,4.0,4.0,93,0.07,,,0.20,Wunderground v.1.15,2013-03-05 18:58:00,
2013-03-05 13:04:00,33.3,31.8,29.80,NE,39,3.0,4.0,94,0.07,,,0.21,Wunderground v.1.15,2013-03-05 19:04:00,
2013-03-05 13:10:00,33.5,31.7,29.80,NE,39,3.0,3.0,93,0.07,,,0.21,Wunderground v.1.15,2013-03-05 19:10:00,
2013-03-05 13:16:00,33.8,32.3,29.80,NNE,26,3.0,3.0,94,0.06,,,0.22,Wunderground v.1.15,2013-03-05 19:16:00,
2013-03-05 13:22:00,34.2,32.7,29.80,NNE,26,3.0,3.0,94,0.07,,,0.23,Wunderground v.1.15,2013-03-05 19:22:00,
2013-03-05 13:28:00,34.1,32.3,29.80,NNE,19,3.0,3.0,93,0.07,,,0.24,Wunderground v.1.15,2013-03-05 19:28:00,
2013-03-05 13:34:00,33.9,32.1,29.80,NNE,19,2.0,3.0,93,0.07,,,0.24,Wunderground v.1.15,2013-03-05 19:34:00,
2013-03-05 13:40:00,33.8,32.0,29.79,North,5,2.0,2.0,93,0.08,,,0.25,Wunderground v.1.15,2013-03-05 19:40:00,
2013-03-05 13:46:00,33.5,31.4,29.79,North,5,2.0,4.0,92,0.06,,,0.26,Wunderground v.1.15,2013-03-05 19:46:00,
2013-03-05 13:52:00,33.3,31.5,29.79,North,5,3.0,3.0,93,0.06,,,0.26,Wunderground v.1.15,2013-03-05 19:52:00,
2013-03-05 13:58:00,33.4,31.6,29.79,North,5,3.0,3.0,93,0.07,,,0.27,Wunderground v.1.15,2013-03-05 19:58:00,
2013-03-05 14:04:00,33.5,31.7,29.79,North,5,3.0,4.0,93,0.06,,,0.28,Wunderground v.1.15,2013-03-05 20:04:00,
2013-03-05 14:10:00,33.4,31.6,29.79,North,5,3.0,3.0,93,0.06,,,0.28,Wunderground v.1.15,2013-03-05 20:10:00,
2013-03-05 14:16:00,33.2,31.4,29.79,North,360,3.0,4.0,93,0.07,,,0.29,Wunderground v.1.15,2013-03-05 20:16:00,
2013-03-05 14:22:00,33.0,31.2,29.79,North,355,3.0,4.0,93,0.06,,,0.30,Wunderground v.1.15,2013-03-05 20:22:00,
2013-03-05 14:28:00,32.9,31.1,29.79,North,349,4.0,5.0,93,0.06,,,0.30,Wunderground v.1.15,2013-03-05 20:28:00,
2013-03-05 14:34:00,32.8,31.0,29.79,NNW,346,4.0,5.0,93,0.08,,,0.31,Wunderground v.1.15,2013-03-05 20:34:00,
2013-03-05 14:40:00,32.9,31.1,29.80,North,351,4.0,5.0,93,0.06,,,0.32,Wunderground v.1.15,2013-03-05 20:40:00,
2013-03-05 14:46:00,32.7,30.9,29.80,NNW,346,4.0,5.0,93,0.06,,,0.32,Wunderground v.1.15,2013-03-05 20:46:00,
2013-03-05 14:52:00,32.6,30.8,29.80,NNW,346,4.0,5.0,93,0.07,,,0.33,Wunderground v.1.15,2013-03-05 20:52:00,
2013-03-05 14:58:00,32.5,31.0,29.80,NNW,346,5.0,5.0,94,0.06,,,0.33,Wunderground v.1.15,2013-03-05 20:58:00,
2013-03-05 15:04:00,32.4,30.9,29.80,North,350,5.0,5.0,94,0.05,,,0.34,Wunderground v.1.15,2013-03-05 21:04:00,
2013-03-05 15:10:00,32.4,30.9,29.80,North,355,5.0,6.0,94,0.06,,,0.35,Wunderground v.1.15,2013-03-05 21:10:00,
2013-03-05 15:16:00,32.4,30.9,29.81,North,5,5.0,6.0,94,0.06,,,0.35,Wunderground v.1.15,2013-03-05 21:16:00,
2013-03-05 15:22:00,32.4,30.9,29.80,North,360,5.0,6.0,94,0.05,,,0.36,Wunderground v.1.15,2013-03-05 21:22:00,
2013-03-05 15:28:00,32.5,31.0,29.81,North,360,5.0,6.0,94,0.05,,,0.36,Wunderground v.1.15,2013-03-05 21:28:00,
2013-03-05 15:34:00,32.4,30.9,29.81,NNW,345,4.0,5.0,94,0.04,,,0.36,Wunderground v.1.15,2013-03-05 21:34:00,
2013-03-05 15:40:00,32.1,30.6,29.81,North,5,5.0,7.0,94,0.04,,,0.37,Wunderground v.1.15,2013-03-05 21:40:00,
2013-03-05 15:46:00,32.0,30.5,29.81,North,9,6.0,7.0,94,0.04,,,0.37,Wunderground v.1.15,2013-03-05 21:46:00,
2013-03-05 15:52:00,31.9,30.4,29.81,North,11,5.0,5.0,94,0.00,,,0.37,Wunderground v.1.15,2013-03-05 21:52:00,
2013-03-05 15:58:00,31.8,30.3,29.81,North,10,5.0,6.0,94,0.00,,,0.38,Wunderground v.1.15,2013-03-05 21:58:00,
2013-03-05 16:04:00,31.7,30.2,29.81,North,5,5.0,5.0,94,0.00,,,0.38,Wunderground v.1.15,2013-03-05 22:04:00,
2013-03-05 16:10:00,31.6,30.1,29.81,North,5,6.0,7.0,94,0.00,,,0.38,Wunderground v.1.15,2013-03-05 22:10:00,
2013-03-05 16:16:00,31.4,29.9,29.82,NNE,15,6.0,7.0,94,0.00,,,0.38,Wunderground v.1.15,2013-03-05 22:16:00,
2013-03-05 16:22:00,31.2,29.7,29.82,NNE,19,7.0,7.0,94,0.00,,,0.38,Wunderground v.1.15,2013-03-05 22:22:00,
2013-03-05 16:28:00,31.1,29.6,29.82,NNE,18,7.0,7.0,94,0.00,,,0.38,Wunderground v.1.15,2013-03-05 22:28:00,
2013-03-05 16:34:00,31.0,29.5,29.82,NNE,19,8.0,9.0,94,0.00,,,0.38,Wunderground v.1.15,2013-03-05 22:34:00,
2013-03-05 16:40:00,30.9,29.4,29.83,NNE,19,8.0,9.0,94,0.00,,,0.38,Wunderground v.1.15,2013-03-05 22:40:00,
2013-03-05 16:46:00,30.9,29.4,29.83,NNE,13,7.0,8.0,94,0.00,,,0.38,Wunderground v.1.15,2013-03-05 22:46:00,
2013-03-05 16:52:00,30.8,29.3,29.83,North,9,6.0,7.0,94,0.00,,,0.38,Wunderground v.1.15,2013-03-05 22:52:00,
2013-03-05 16:58:00,30.7,29.2,29.83,North,5,7.0,8.0,94,0.00,,,0.38,Wunderground v.1.15,2013-03-05 22:58:00,
2013-03-05 17:04:00,30.5,29.0,29.84,North,5,8.0,11.0,94,0.00,,,0.38,Wunderground v.1.15,2013-03-05 23:04:00,
2013-03-05 17:10:00,30.3,28.8,29.84,NNE,17,9.0,11.0,94,0.00,,,0.38,Wunderground v.1.15,2013-03-05 23:10:00,
2013-03-05 17:16:00,30.1,28.6,29.84,NNE,17,10.0,12.0,94,0.00,,,0.38,Wunderground v.1.15,2013-03-05 23:16:00,
2013-03-05 17:22:00,29.9,28.4,29.84,NNE,23,10.0,10.0,94,0.00,,,0.38,Wunderground v.1.15,2013-03-05 23:22:00,
2013-03-05 17:28:00,29.8,28.3,29.85,NNE,18,10.0,13.0,94,0.00,,,0.38,Wunderground v.1.15,2013-03-05 23:28:00,
2013-03-05 17:34:00,29.7,28.2,29.85,North,5,9.0,11.0,94,0.00,,,0.38,Wunderground v.1.15,2013-03-05 23:34:00,
2013-03-05 17:40:00,29.5,28.0,29.85,NNE,23,10.0,14.0,94,0.00,,,0.38,Wunderground v.1.15,2013-03-05 23:40:00,
2013-03-05 17:46:00,29.3,27.8,29.86,NNE,30,12.0,14.0,94,0.00,,,0.38,Wunderground v.1.15,2013-03-05 23:46:00,
2013-03-05 17:52:00,29.2,27.7,29.86,NNE,19,12.0,12.0,94,0.00,,,0.38,Wunderground v.1.15,2013-03-05 23:52:00,
2013-03-05 17:58:00,29.2,27.7,29.86,NNE,17,10.0,12.0,94,0.00,,,0.38,Wunderground v.1.15,2013-03-05 23:58:00,
2013-03-05 18:04:00,29.2,27.7,29.87,NNE,14,10.0,10.0,94,0.00,,,0.38,Wunderground v.1.15,2013-03-06 00:04:00,
2013-03-05 18:10:00,29.2,27.7,29.88,North,9,10.0,10.0,94,0.00,,,0.38,Wunderground v.1.15,2013-03-06 00:10:00,
2013-03-05 18:16:00,29.1,27.6,29.88,North,5,10.0,11.0,94,0.00,,,0.38,Wunderground v.1.15,2013-03-06 00:16:00,
2013-03-05 18:22:00,29.0,27.5,29.89,NNE,15,12.0,14.0,94,0.00,,,0.38,Wunderground v.1.15,2013-03-06 00:22:00,
2013-03-05 18:28:00,28.9,27.4,29.88,NNE,13,13.0,14.0,94,0.00,,,0.38,Wunderground v.1.15,2013-03-06 00:28:00,
2013-03-05 18:34:00,28.7,27.2,29.89,NNE,17,13.0,13.0,94,0.00,,,0.38,Wunderground v.1.15,2013-03-06 00:34:00,
2013-03-05 18:40:00,28.7,27.2,29.89,NNE,19,12.0,13.0,94,0.00,,,0.38,Wunderground v.1.15,2013-03-06 00:40:00,
2013-03-05 18:46:00,28.6,27.1,29.90,North,9,12.0,15.0,94,0.00,,,0.38,Wunderground v.1.15,2013-03-06 00:46:00,
2013-03-05 18:52:00,28.5,27.0,29.90,NNE,15,13.0,13.0,94,0.00,,,0.38,Wunderground v.1.15,2013-03-06 00:52:00,
2013-03-05 18:58:00,28.5,27.0,29.90,North,5,12.0,13.0,94,0.00,,,0.38,Wunderground v.1.15,2013-03-06 00:58:00,
2013-03-05 19:04:00,28.5,27.0,29.90,North,360,11.0,11.0,94,0.00,,,0.38,Wunderground v.1.15,2013-03-06 01:04:00,
2013-03-05 19:10:00,28.5,27.0,29.91,NNE,20,11.0,11.0,94,0.00,,,0.38,Wunderground v.1.15,2013-03-06 01:10:00,
2013-03-05 19:16:00,28.5,27.0,29.91,North,360,11.0,14.0,94,0.00,,,0.38,Wunderground v.1.15,2013-03-06 01:16:00,
2013-03-05 19:22:00,28.3,26.5,29.91,North,5,13.0,13.0,93,0.00,,,0.38,Wunderground v.1.15,2013-03-06 01:22:00,
2013-03-05 19:28:00,28.0,26.2,29.91,North,5,14.0,17.0,93,0.00,,,0.38,Wunderground v.1.15,2013-03-06 01:28:00,
2013-03-05 19:34:00,27.9,26.1,29.91,North,5,15.0,16.0,93,0.00,,,0.38,Wunderground v.1.15,2013-03-06 01:34:00,
2013-03-05 19:40:00,27.8,26.0,29.92,NW,324,14.0,17.0,93,0.00,,,0.38,Wunderground v.1.15,2013-03-06 01:40:00,
2013-03-05 19:46:00,27.9,26.1,29.92,NNE,12,14.0,16.0,93,0.00,,,0.38,Wunderground v.1.15,2013-03-06 01:46:00,
2013-03-05 19:52:00,27.8,26.0,29.92,North,360,14.0,15.0,93,0.00,,,0.38,Wunderground v.1.15,2013-03-06 01:52:00,
2013-03-05 19:58:00,27.8,26.0,29.92,NNW,337,14.0,15.0,93,0.00,,,0.38,Wunderground v.1.15,2013-03-06 01:58:00,
2013-03-05 20:04:00,27.7,25.9,29.92,North,349,14.0,14.0,93,0.00,,,0.38,Wunderground v.1.15,2013-03-06 02:04:00,
2013-03-05 20:10:00,27.6,25.8,29.93,NE,40,14.0,14.0,93,0.00,,,0.38,Wunderground v.1.15,2013-03-06 02:10:00,
2013-03-05 20:16:00,27.5,25.7,29.93,NNW,339,15.0,18.0,93,0.00,,,0.38,Wunderground v.1.15,2013-03-06 02:16:00,
2013-03-05 20:22:00,27.5,25.7,29.94,NNW,336,15.0,15.0,93,0.00,,,0.38,Wunderground v.1.15,2013-03-06 02:22:00,
2013-03-05 20:28:00,27.3,25.5,29.94,North,355,14.0,17.0,93,0.00,,,0.38,Wunderground v.1.15,2013-03-06 02:28:00,
2013-03-05 20:34:00,27.3,25.5,29.94,NNW,340,15.0,19.0,93,0.00,,,0.38,Wunderground v.1.15,2013-03-06 02:34:00,
2013-03-05 20:40:00,27.2,25.4,29.95,North,350,15.0,19.0,93,0.00,,,0.38,Wunderground v.1.15,2013-03-06 02:40:00,
2013-03-05 20:46:00,27.1,25.3,29.95,North,360,15.0,15.0,93,0.00,,,0.38,Wunderground v.1.15,2013-03-06 02:46:00,
2013-03-05 20:52:00,27.1,25.6,29.95,NNE,15,15.0,15.0,94,0.00,,,0.38,Wunderground v.1.15,2013-03-06 02:52:00,
2013-03-05 20:58:00,27.1,25.6,29.95,North,350,15.0,15.0,94,0.00,,,0.38,Wunderground v.1.15,2013-03-06 02:58:00,
2013-03-05 21:04:00,27.1,25.3,29.96,NNW,344,15.0,16.0,93,0.00,,,0.38,Wunderground v.1.15,2013-03-06 03:04:00,
2013-03-05 21:10:00,27.1,25.3,29.96,North,360,15.0,15.0,93,0.00,,,0.38,Wunderground v.1.15,2013-03-06 03:10:00,
2013-03-05 21:16:00,27.1,25.6,29.97,NNW,338,15.0,16.0,94,0.00,,,0.38,Wunderground v.1.15,2013-03-06 03:16:00,
2013-03-05 21:22:00,27.1,25.6,29.97,North,350,14.0,15.0,94,0.00,,,0.38,Wunderground v.1.15,2013-03-06 03:22:00,
2013-03-05 21:28:00,27.1,25.6,29.97,North,355,14.0,17.0,94,0.00,,,0.38,Wunderground v.1.15,2013-03-06 03:28:00,
2013-03-05 21:34:00,27.1,25.6,29.97,North,360,15.0,20.0,94,0.00,,,0.38,Wunderground v.1.15,2013-03-06 03:34:00,
2013-03-05 21:40:00,27.0,25.5,29.98,NNE,20,16.0,16.0,94,0.00,,,0.38,Wunderground v.1.15,2013-03-06 03:40:00,
2013-03-05 21:46:00,27.0,25.5,29.98,North,5,16.0,16.0,94,0.00,,,0.38,Wunderground v.1.15,2013-03-06 03:46:00,
2013-03-05 21:52:00,26.9,25.4,29.98,North,360,15.0,15.0,94,0.00,,,0.38,Wunderground v.1.15,2013-03-06 03:52:00,
2013-03-05 21:58:00,26.9,25.4,29.99,North,5,15.0,16.0,94,0.00,,,0.38,Wunderground v.1.15,2013-03-06 03:58:00,
2013-03-05 22:04:00,26.9,25.4,29.98,NW,325,16.0,17.0,94,0.00,,,0.38,Wunderground v.1.15,2013-03-06 04:04:00,
2013-03-05 22:10:00,26.9,25.4,29.99,North,11,17.0,20.0,94,0.00,,,0.38,Wunderground v.1.15,2013-03-06 04:10:00,
2013-03-05 22:16:00,26.9,25.4,29.99,North,355,17.0,20.0,94,0.00,,,0.38,Wunderground v.1.15,2013-03-06 04:16:00,
2013-03-05 22:22:00,26.9,25.4,29.99,NNW,341,17.0,20.0,94,0.00,,,0.38,Wunderground v.1.15,2013-03-06 04:22:00,
2013-03-05 22:28:00,26.9,25.4,29.99,NNW,348,16.0,20.0,94,0.00,,,0.38,Wunderground v.1.15,2013-03-06 04:28:00,
2013-03-05 22:34:00,26.9,25.4,30.00,NW,315,16.0,18.0,94,0.00,,,0.38,Wunderground v.1.15,2013-03-06 04:34:00,
2013-03-05 22:40:00,27.0,25.5,30.00,North,349,16.0,16.0,94,0.00,,,0.38,Wunderground v.1.15,2013-03-06 04:40:00,
2013-03-05 22:46:00,27.0,25.5,30.00,NNW,348,17.0,19.0,94,0.00,,,0.38,Wunderground v.1.15,2013-03-06 04:46:00,
2013-03-05 22:52:00,27.0,25.5,30.00,North,5,16.0,18.0,94,0.00,,,0.38,Wunderground v.1.15,2013-03-06 04:52:00,
2013-03-05 22:58:00,26.9,25.4,30.00,North,355,15.0,18.0,94,0.00,,,0.38,Wunderground v.1.15,2013-03-06 04:58:00,
2013-03-05 23:00:00,26.9,25.4,30.00,North,355,16.0,18.0,94,0.00,,,0.38,Wunderground v.1.15,2013-03-06 05:00:00,
2013-03-05 23:02:00,26.9,25.4,30.00,NNW,344,15.0,18.0,94,0.00,,,0.38,Wunderground v.1.15,2013-03-06 05:02:00,
2013-03-05 23:04:00,26.8,25.3,30.00,NNE,19,15.0,18.0,94,0.00,,,0.38,Wunderground v.1.15,2013-03-06 05:04:00,
2013-03-05 23:10:00,26.8,25.3,30.00,NNW,348,15.0,17.0,94,0.00,,,0.38,Wunderground v.1.15,2013-03-06 05:10:00,
2013-03-05 23:12:00,26.8,25.3,30.00,NNW,343,15.0,17.0,94,0.00,,,0.38,Wunderground v.1.15,2013-03-06 05:12:00,
2013-03-05 23:18:00,26.7,25.2,30.00,North,360,15.0,18.0,94,0.00,,,0.38,Wunderground v.1.15,2013-03-06 05:18:00,
2013-03-05 23:24:00,26.6,24.8,30.00,North,360,15.0,16.0,93,0.00,,,0.38,Wunderground v.1.15,2013-03-06 05:24:00,
2013-03-05 23:30:00,26.5,24.8,30.01,NNE,14,15.0,15.0,93,0.00,,,0.38,Wunderground v.1.15,2013-03-06 05:30:00,
2013-03-05 23:36:00,26.3,24.6,30.01,NNW,327,14.0,15.0,93,0.00,,,0.38,Wunderground v.1.15,2013-03-06 05:36:00,
2013-03-05 23:42:00,26.2,24.5,30.01,NW,315,13.0,15.0,93,0.00,,,0.38,Wunderground v.1.15,2013-03-06 05:42:00,
2013-03-05 23:48:00,26.0,24.3,30.01,NNW,339,13.0,15.0,93,0.00,,,0.38,Wunderground v.1.15,2013-03-06 05:48:00,
2013-03-05 23:54:00,25.8,24.1,30.02,North,5,13.0,15.0,93,0.00,,,0.38,Wunderground v.1.15,2013-03-06 05:54:00,